Indianapolis, IN

9:00 PM EDT on August 22, 2017 (GMT -0400)
Indianapolis International

Weather History for KIND - October, 2013

Change the Weather History Date:

Thursday, October 24, 2013

  Actual Average Record
Temperature  
Mean Temperature 36 °F 52 °F  
Max Temperature 40 °F 62 °F 81 °F (1963)
Min Temperature 31 °F 42 °F 20 °F (1981)
Degree Days  
Heating Degree Days 29 13  
Month to date heating degree days 223 228  
Since 1 July heating degree days 257 303  
Cooling Degree Days 0 0  
Month to date cooling degree days 31 13  
Year to date cooling degree days 1160 1062  
Moisture  
Dew Point 31 °F    
Average Humidity 81    
Maximum Humidity 92    
Minimum Humidity 70    
Precipitation  
Precipitation 0.02 in 0.09 in 1.52 in (2001)
Month to date precipitation 3.19 2.42  
Year to date precipitation 35.98 34.87  
Snow  
Snow T in 0.10 in 0.40 in (1929)
Month to date snowfall T 0.3  
Since 1 July snowfall T 0.3  
Since 1 September snowfall T 0.3  
Snow Depth 0.00 in    
Sea Level Pressure  
Sea Level Pressure 30.16 in    
Wind  
Wind Speed 9 mph (West)    
Max Wind Speed 17 mph    
Max Gust Speed 21 mph    
Visibility 10 miles    
Events Rain    
T = Trace of Precipitation, MM = Missing Value Source: NWS Daily Summary

Daily Weather History Graph

Daily Weather History Graph

Search for Another Location

Airport or City:

Trip Planner

Search our weather history database for the weather conditions in past years. The results will help you decide how hot, cold, wet, or windy it might be!

Date:

Astronomy

Oct. 24, 2013 Rise Set
Actual Time 8:05 AM EDT 6:52 PM EDT
Civil Twilight 7:37 AM EDT 7:20 PM EDT
Nautical Twilight 7:06 AM EDT 7:51 PM EDT
Astronomical Twilight 6:34 AM EDT 8:23 PM EDT
Moon 11:17 PM EDT (10/24) 1:05 PM EDT (10/24)
Length of Visible Light 11h 42m
Length of Day
10h 47m
Waning Gibbous, 71% of the Moon is Illuminated
Oct 24
Waning Gibbous
Oct 26
Last Quarter
Nov 3
New
Nov 10
First Quarter
Nov 17
Full

Hourly Weather History & Observations

Time (EDT) Temp. Windchill Dew Point Humidity Pressure Visibility Wind Dir Wind Speed Gust Speed Precip Events Conditions
12:54 AM 37.9 °F 32.1 °F 30.0 °F 73% 30.06 in 10.0 mi West 8.1 mph - N/A   Overcast
1:54 AM 37.9 °F 31.5 °F 30.0 °F 73% 30.06 in 10.0 mi West 9.2 mph - N/A   Overcast
2:54 AM 37.9 °F 31.5 °F 30.9 °F 76% 30.06 in 10.0 mi West 9.2 mph - N/A   Overcast
3:54 AM 37.9 °F 32.1 °F 30.9 °F 76% 30.07 in 10.0 mi West 8.1 mph - N/A   Overcast
4:54 AM 37.9 °F 32.1 °F 30.9 °F 76% 30.06 in 10.0 mi West 8.1 mph - N/A   Overcast
5:54 AM 37.0 °F 32.4 °F 30.9 °F 79% 30.07 in 10.0 mi WSW 5.8 mph - N/A   Overcast
6:54 AM 37.0 °F 32.4 °F 32.0 °F 82% 30.09 in 10.0 mi WSW 5.8 mph - N/A   Overcast
7:54 AM 36.0 °F 30.3 °F 30.9 °F 82% 30.09 in 10.0 mi WSW 6.9 mph - N/A   Mostly Cloudy
8:54 AM 36.0 °F 29.0 °F 30.9 °F 82% 30.11 in 10.0 mi WSW 9.2 mph - N/A   Overcast
9:24 AM 37.4 °F 32.1 °F 32.0 °F 81% 30.10 in 10.0 mi WSW 6.9 mph - N/A Rain Light Rain
9:54 AM 37.0 °F 31.6 °F 32.0 °F 82% 30.13 in 10.0 mi West 6.9 mph - N/A Rain Light Rain
10:15 AM 37.4 °F 30.3 °F 32.0 °F 81% 30.12 in 10.0 mi West 10.4 mph - N/A Rain Light Rain
10:54 AM 37.9 °F 31.5 °F 33.1 °F 83% 30.14 in 10.0 mi WSW 9.2 mph - N/A Rain Light Rain
11:03 AM 37.4 °F 31.4 °F 33.8 °F 87% 30.12 in 10.0 mi WSW 8.1 mph - N/A Rain Light Rain
11:15 AM 37.4 °F 30.8 °F 33.8 °F 87% 30.12 in 10.0 mi WSW 9.2 mph - N/A Rain Light Rain
11:54 AM 39.9 °F 33.9 °F 34.0 °F 79% 30.14 in 10.0 mi WSW 9.2 mph - N/A Rain Light Rain
12:54 PM 36.0 °F 29.6 °F 33.1 °F 89% 30.16 in 5.0 mi WNW 8.1 mph - N/A Rain Light Rain
1:06 PM 37.4 °F 30.8 °F 33.8 °F 87% 30.14 in 5.0 mi WNW 9.2 mph - N/A Rain Light Rain
1:11 PM 37.4 °F 30.8 °F 33.8 °F 87% 30.14 in 5.0 mi WNW 9.2 mph - N/A Rain Light Rain
1:39 PM 37.4 °F 28.9 °F 35.6 °F 93% 30.14 in 10.0 mi West 13.8 mph - N/A Rain Light Rain
1:54 PM 37.9 °F 30.9 °F 35.1 °F 89% 30.16 in 10.0 mi West 10.4 mph - N/A   Light Drizzle
2:54 PM 39.0 °F 32.3 °F 34.0 °F 82% 30.16 in 10.0 mi WNW 10.4 mph - N/A Rain Light Rain
3:52 PM 37.4 °F 29.8 °F 32.0 °F 81% 30.16 in 10.0 mi WNW 11.5 mph - N/A Rain Light Rain
3:54 PM 37.9 °F 30.5 °F 33.1 °F 83% 30.18 in 10.0 mi West 11.5 mph - N/A Rain Light Rain
4:11 PM 39.2 °F 31.2 °F 33.8 °F 81% 30.17 in 10.0 mi West 13.8 mph - N/A   Overcast
4:31 PM 37.4 °F 29.8 °F 32.0 °F 81% 30.18 in 10.0 mi WNW 11.5 mph - N/A   Overcast
4:54 PM 37.9 °F 30.5 °F 33.1 °F 83% 30.20 in 10.0 mi West 11.5 mph - N/A   Overcast
5:54 PM 39.0 °F 32.3 °F 33.1 °F 79% 30.21 in 10.0 mi West 10.4 mph - N/A   Overcast
6:25 PM 39.2 °F 33.0 °F 28.4 °F 65% 30.21 in 10.0 mi WNW 9.2 mph - N/A   Overcast
6:54 PM 37.9 °F 31.5 °F 30.0 °F 73% 30.24 in 10.0 mi West 9.2 mph - N/A   Overcast
7:54 PM 37.0 °F 31.6 °F 30.0 °F 76% 30.26 in 10.0 mi West 6.9 mph - N/A   Overcast
8:54 PM 37.0 °F 30.4 °F 28.0 °F 70% 30.28 in 10.0 mi WNW 9.2 mph - N/A   Overcast
9:54 PM 34.0 °F 27.2 °F 26.1 °F 73% 30.29 in 10.0 mi WNW 8.1 mph - N/A   Scattered Clouds
10:54 PM 35.1 °F 28.6 °F 26.1 °F 70% 30.30 in 10.0 mi West 8.1 mph - N/A   Mostly Cloudy
11:54 PM 33.1 °F 26.1 °F 26.1 °F 75% 30.31 in 10.0 mi West 8.1 mph - N/A   Partly Cloudy